Location: Martinez
(33.5170°N, 82.0760°W)
Time: 22:12:39
(UTC-04:00)

HST - Visible Passes

Search period start: 20 October 2014 00:00
Search period end: 30 October 2014 00:00
Orbit: 546 x 551 km, 28.5° (Epoch: 19 October)

Date Brightness Start Highest point End Pass type
(mag) Time Alt. Az. Time Alt. Az. Time Alt. Az.
23 Oct 3.5 21:03:33 10° SW 21:04:12 13° SSW 21:04:12 13° SSW visible
24 Oct 3.1 19:17:23 10° S 19:18:46 11° SSE 19:20:10 10° SE visible
24 Oct 3.1 20:56:00 10° SW 20:57:28 18° SSW 20:57:28 18° SSW visible
25 Oct 3.0 19:09:00 10° SSW 19:11:22 15° SSE 19:13:45 10° ESE visible
25 Oct 2.6 20:48:31 10° SW 20:50:41 24° SSW 20:50:41 24° SSW visible
26 Oct 2.2 20:41:05 10° WSW 20:43:51 31° SSW 20:43:51 31° SSW visible
27 Oct 1.9 20:33:41 10° WSW 20:36:59 37° SSW 20:36:59 37° SSW visible
28 Oct 1.6 20:26:19 10° WSW 20:30:06 41° S 20:30:06 41° S visible
29 Oct 1.5 20:18:57 10° WSW 20:22:55 41° S 20:23:11 41° S visible
